Location: East Horndon
(51.5667°N, 0.3500°E)
Time: 09:17:10
(UTC+00:00)

COSMOS 2455 - Pass Details

Date: 08 November 2025
Orbit: 898 x 910 km, 67.1° (Epoch: 12 December)

Event Time Altitude Azimuth Distance (km) Brightness Sun altitude
Exits shadow 03:45:05 63° 25° (NNE) 1,012 3.1 -31.0°
Drops below altitude 10° 03:50:08 10° 37° (NE) 2,606 5.8 -30.3°
Sets 03:52:39 0° 38° (NE) 3,552 6.6 -29.9°
